Weather History for Lake Charles Regional, LA

Change the Weather History Date:

Monday, July 22, 2013

  Actual Average Record
Temperature  
Mean Temperature 84 °F 83 °F  
Max Temperature 92 °F 91 °F 100 °F (1907)
Min Temperature 76 °F 75 °F 67 °F (1970)
Degree Days  
Heating Degree Days 0 0  
Month to date heating degree days 0 0  
Since 1 June heating degree days 0 0  
Since 1 July heating degree days 0 0  
Cooling Degree Days 19 18  
Month to date cooling degree days 394 393  
Year to date cooling degree days 1424 1411  
Since 1 June cooling degree days 939 873  
Growing Degree Days 33 (Base 50)    
Moisture  
Dew Point 77 °F    
Average Humidity 77    
Maximum Humidity 94    
Minimum Humidity 60    
Precipitation  
Precipitation 0.00 in 0.17 in 3.15 in (1942)
Month to date precipitation 1.20 4.08  
Year to date precipitation 34.78 31.81  
Snow  
Snow 0.00 in 0.00 in 0.00 in ()
Month to date snowfall 0.0 0.0  
Since 1 June snowfall 0.0 0.0  
Since 1 July snowfall 0.0 0.0  
Snow Depth 0.00 in    
Sea Level Pressure  
Sea Level Pressure 30.03 in    
Wind  
Wind Speed 7 mph (SW)    
Max Wind Speed 16 mph    
Max Gust Speed 24 mph    
Visibility 10 miles    
Events      
T = Trace of Precipitation, MM = Missing Value Source: NWS Daily Summary

Daily Weather History Graph

Daily Weather History Graph

Search for Another Location

Airport:

Trip Planner

Search our weather history database for the weather conditions in past years. The results will help you decide how hot, cold, wet, or windy it might be!

Date:

Astronomy

Jul. 22, 2013 Rise Set
Actual Time 6:25 AM CDT 8:12 PM CDT
Civil Twilight 5:59 AM CDT 8:39 PM CDT
Nautical Twilight 5:27 AM CDT 9:10 PM CDT
Astronomical Twilight 4:53 AM CDT 9:44 PM CDT
Moon 8:06 PM CDT (7/22) 6:18 AM CDT (7/22)
Length of Visible Light 14h 39m
Length of Day
13h 46m
Full, 100% of the Moon is Illuminated
Jul 22
Full
Jul 22
Full
Jul 29
Last Quarter
Aug 6
New
Aug 14
First Quarter

Hourly Weather History & Observations

Time (CDT) Temp. Heat Index Dew Point Humidity Pressure Visibility Wind Dir Wind Speed Gust Speed Precip Events Conditions
12:53 AM 75.9 °F - 73.9 °F 94% 30.03 in 10.0 mi Calm Calm - N/A   Clear
1:53 AM 75.9 °F - 73.9 °F 94% 30.02 in 10.0 mi Calm Calm - N/A   Clear
2:53 AM 80.1 °F 85.8 °F 77.0 °F 90% 30.01 in 10.0 mi South 3.5 mph - N/A   Clear
3:53 AM 81.0 °F 88.6 °F 78.1 °F 91% 30.01 in 10.0 mi SSW 5.8 mph - N/A   Clear
4:53 AM 81.0 °F 87.9 °F 77.0 °F 88% 30.01 in 10.0 mi SW 3.5 mph - N/A   Clear
5:53 AM 81.0 °F 87.9 °F 77.0 °F 88% 30.02 in 10.0 mi SW 3.5 mph - N/A   Clear
6:53 AM 80.1 °F 85.8 °F 77.0 °F 90% 30.03 in 10.0 mi SSW 3.5 mph - N/A   Clear
7:53 AM 84.0 °F 96.0 °F 79.0 °F 85% 30.04 in 10.0 mi SW 4.6 mph - N/A   Clear
8:53 AM 84.9 °F 96.6 °F 78.1 °F 80% 30.06 in 10.0 mi SW 6.9 mph - N/A   Partly Cloudy
9:32 AM 87.8 °F 102.5 °F 78.8 °F 75% 30.04 in 10.0 mi WSW 9.2 mph - N/A   Mostly Cloudy
9:53 AM 87.1 °F 97.3 °F 75.9 °F 69% 30.06 in 10.0 mi SW 10.4 mph 17.3 mph N/A   Mostly Cloudy
10:53 AM 89.1 °F 100.2 °F 75.9 °F 65% 30.07 in 10.0 mi SW 9.2 mph 17.3 mph N/A   Scattered Clouds
11:53 AM 88.0 °F 98.5 °F 75.9 °F 67% 30.08 in 10.0 mi SSW 10.4 mph 17.3 mph N/A   Mostly Cloudy
12:11 PM 89.6 °F 99.8 °F 75.2 °F 62% 30.05 in 10.0 mi SSW 10.4 mph - N/A   Mostly Cloudy
12:53 PM 88.0 °F 100.2 °F 77.0 °F 70% 30.06 in 10.0 mi SSW 11.5 mph 20.7 mph N/A   Scattered Clouds
1:53 PM 90.0 °F 102.5 °F 77.0 °F 65% 30.04 in 10.0 mi SW 13.8 mph 21.9 mph N/A   Partly Cloudy
2:53 PM 91.0 °F 102.9 °F 75.9 °F 61% 30.03 in 10.0 mi SSW 11.5 mph 21.9 mph N/A   Clear
3:53 PM 91.0 °F 102.9 °F 75.9 °F 61% 30.03 in 10.0 mi SSW 12.7 mph 20.7 mph N/A   Clear
4:53 PM 90.0 °F 101.3 °F 75.9 °F 63% 30.02 in 10.0 mi SSW 13.8 mph 20.7 mph N/A   Partly Cloudy
5:53 PM 89.1 °F 100.2 °F 75.9 °F 65% 30.01 in 10.0 mi SSW 10.4 mph 18.4 mph N/A   Partly Cloudy
6:53 PM 86.0 °F 96.0 °F 75.9 °F 72% 30.01 in 10.0 mi SSW 6.9 mph 17.3 mph N/A   Partly Cloudy
7:53 PM 84.9 °F 95.3 °F 77.0 °F 77% 30.01 in 10.0 mi SSW 9.2 mph - N/A   Partly Cloudy
8:53 PM 84.0 °F 92.6 °F 75.9 °F 76% 30.01 in 10.0 mi SSW 6.9 mph - N/A   Scattered Clouds
9:53 PM 82.9 °F 91.8 °F 77.0 °F 82% 30.03 in 10.0 mi SW 3.5 mph - N/A   Scattered Clouds
10:06 PM 82.4 °F 90.9 °F 77.0 °F 84% 30.01 in 10.0 mi WSW 4.6 mph - N/A   Mostly Cloudy
10:53 PM 82.9 °F 91.8 °F 77.0 °F 82% 30.04 in 10.0 mi SW 4.6 mph - N/A   Mostly Cloudy
11:38 PM 82.4 °F 90.9 °F 77.0 °F 84% 30.02 in 10.0 mi SW 5.8 mph - N/A   Scattered Clouds
11:45 PM 82.4 °F 90.9 °F 77.0 °F 84% 30.03 in 10.0 mi SW 5.8 mph - N/A   Mostly Cloudy
11:53 PM 82.9 °F 91.8 °F 77.0 °F 82% 30.05 in 10.0 mi Variable 5.8 mph - N/A   Mostly Cloudy